PSLV R/B, 40270

Orbit data source: Space-Track

PSLV R/B, 40270 is space debris in HEO originally from a launch on Wed, 15 Oct 2014 UTC launched from the Sirharikota (SRI). Debris objects in space refer to the collection of defunct objects orbiting the Earth. Examples of debris include non-operational satellites, rocket bodies, and fragments generated from explosions, collisions, or faulty payload assembly.

Loading next visibility...
Identifier
40270, 2014-061B
Orbit
HEO
Country
Flag of ININ / IND
Related business
Manufacturer
VSSC/LPSC
Mission
Spacecraft
Bus & Motor
PS-4, Unknown motor
Mass
920 kg wet, 920 kg dry
Launch date (UTC)
2014-10-15 (12 years ago)
Launch vehicle
Unknown
Launch site
Sirharikota (SRI)
Object type
Payload
Rocket body
Debris
Shape & HBR
Cyl + Cyl + 2 Nozzle, 1.5 m
Radar Cross Section
6.283 m², Large (>1 m²)

Expand to show TLE details & history
Last TLE update: 2 days ago

TLE from 2 days ago
0 PSLV R/B
1 40270U 14061B   26171.35527501  .00011275  00000-0  97047-3 0  9996
2 40270  17.8051 288.2056 5749512 348.0360   2.6363  4.46264398177129
Epoch: 2026-06-20T08:31Z
TLE epoch observation values (Epoch: 2026-06-20T08:31:35.760Z)
Latitude
0.00002°
Longitude
-108.26492°
Altitude
292.022 km
Speed
9.692 km/s
True Right ascension
19h 12m 49s
True Declination
0° 00' 00"
Sunlit
Object was in full shadow at epoch
Visualization orbit readout
Latitude
Unknown
Longitude
Unknown
Altitude
Unknown
Speed
Unknown
Apparent Right ascension
Unknown
Apparent Declination
Unknown
Sunlit
N/A
Visualization observer readout
Local Sidereal Time
21:42:21
Azimuth
Unknown
Elevation
Unknown
Doppler factor
Unknown
Orbital elements
Apogee altitude
18,172.608 km
Perigee altitude
247.633 km
Semi-major axis
15,588.258 km
Eccentricity
0.57495
Inclination
17.8051°
RAAN
288.2056°
Arg. of periapsis
348.036°
True anomaly
11.87666°
Mean anomaly
2.6363°
Eccentric anomaly
6.1861°
Mean motion
1.11518 °/min
Orbital period
322.82 mins
BSTAR
0.00097047
Loading maneuver chart data...
Computing Atmospheric mass density...
Loading historical data...
Loading historical data...
Loading historical data...
Loading historical data...
Loading historical data...
Loading historical data...
Loading historical data...
Other satellites on launch #61 in the year 2014 (2014-10-15 UTC)

Documentation

Showing up to 5 results
|